AMX1020 MMMX-MMHO

Flight info

Callsign AMX1020
Flight time 2h 25m
Altitude 36000
Route ATUR3B/23R ATURO UT133 AGU UJ63 DGO UT49 NABAS UT18 NABLA NABLA1B
Aircraft B738/M-SABDFGRVYL/LB2

Departure

Time 2026-04-24 03:00
Airport Mexico City Benito Juárez International Airport (MMMX)

Arrival

Time 2026-04-24 05:26
Airport General Ignacio L. Pesqueira International Airport (MMHO)
Time Latitude Longitude Altitude Speed Heading
2026-04-24 02:04 19.42208 -99.08091 7345 ft 0 kts 52°
2026-04-24 02:09 19.42172 -99.08021 7345 ft 0 kts 32°
2026-04-24 02:16 19.42172 -99.08022 7345 ft 0 kts 32°
2026-04-24 02:41 19.42166 -99.08025 7345 ft 2 kts 26°
2026-04-24 02:42 19.42155 -99.08031 7345 ft 0 kts 33°
2026-04-24 02:42 19.42144 -99.08038 7345 ft 2 kts
2026-04-24 02:42 19.42129 -99.08036 7345 ft 2 kts 336°
2026-04-24 02:42 19.42118 -99.08027 7345 ft 1 kts 306°
2026-04-24 02:43 19.42115 -99.08021 7345 ft 1 kts 299°
2026-04-24 02:43 19.42113 -99.08019 7345 ft 0 kts 301°
2026-04-24 02:49 19.42117 -99.08025 7345 ft 7 kts 301°
2026-04-24 02:50 19.42180 -99.08141 7345 ft 19 kts 298°
2026-04-24 02:50 19.42276 -99.08208 7345 ft 17 kts
2026-04-24 02:50 19.42388 -99.08199 7345 ft 15 kts 22°
2026-04-24 02:50 19.42450 -99.08120 7345 ft 13 kts 60°
2026-04-24 02:51 19.42493 -99.08041 7345 ft 11 kts 60°
2026-04-24 02:51 19.42531 -99.07972 7345 ft 10 kts 60°
2026-04-24 02:51 19.42568 -99.07904 7344 ft 11 kts 59°
2026-04-24 02:51 19.42608 -99.07834 7344 ft 10 kts 54°
2026-04-24 02:52 19.42670 -99.07833 7344 ft 9 kts 329°
2026-04-24 02:52 19.42723 -99.07865 7344 ft 9 kts 330°
2026-04-24 02:52 19.42806 -99.07870 7344 ft 12 kts 22°
2026-04-24 02:52 19.42877 -99.07832 7344 ft 10 kts 30°
2026-04-24 02:53 19.42936 -99.07796 7344 ft 9 kts 30°
2026-04-24 02:53 19.42983 -99.07763 7344 ft 6 kts 60°
2026-04-24 02:53 19.43003 -99.07704 7344 ft 15 kts 69°
2026-04-24 02:53 19.43080 -99.07558 7343 ft 24 kts 59°
2026-04-24 02:54 19.43165 -99.07413 7343 ft 22 kts 58°
2026-04-24 02:54 19.43242 -99.07277 7343 ft 20 kts 66°
2026-04-24 02:54 19.43266 -99.07135 7343 ft 18 kts 83°
2026-04-24 02:54 19.43318 -99.07018 7342 ft 17 kts 58°
2026-04-24 02:55 19.43376 -99.06916 7342 ft 15 kts 59°
2026-04-24 02:55 19.43425 -99.06823 7342 ft 13 kts 64°
2026-04-24 02:55 19.43485 -99.06741 7342 ft 18 kts 32°
2026-04-24 02:55 19.43619 -99.06619 7342 ft 30 kts 53°
2026-04-24 02:56 19.43724 -99.06432 7341 ft 28 kts 61°
2026-04-24 02:56 19.43819 -99.06252 7341 ft 26 kts 60°
2026-04-24 02:56 19.43913 -99.06089 7341 ft 24 kts 59°
2026-04-24 02:56 19.43996 -99.05937 7341 ft 23 kts 61°
2026-04-24 02:57 19.44103 -99.05842 7341 ft 14 kts 10°
2026-04-24 02:57 19.44128 -99.05838 7340 ft 0 kts
2026-04-24 02:58 19.44206 -99.05833 7340 ft 29 kts
2026-04-24 02:58 19.44464 -99.05821 7340 ft 20 kts
2026-04-24 02:58 19.44487 -99.05818 7340 ft 0 kts
2026-04-24 02:59 19.44490 -99.05817 7340 ft 2 kts
2026-04-24 02:59 19.44541 -99.05826 7340 ft 12 kts 322°
2026-04-24 02:59 19.44516 -99.05933 7340 ft 20 kts 238°
2026-04-24 03:00 19.44365 -99.06189 7341 ft 74 kts 239°
2026-04-24 03:00 19.43980 -99.06867 7342 ft 140 kts 238°
2026-04-24 03:00 19.43377 -99.07938 7344 ft 195 kts 239°
2026-04-24 03:00 19.42641 -99.09239 7955 ft 200 kts 240°
2026-04-24 03:01 19.42045 -99.10316 9090 ft 162 kts 240°
2026-04-24 03:01 19.41438 -99.11359 9414 ft 168 kts 243°
2026-04-24 03:01 19.40850 -99.12537 9459 ft 200 kts 243°
2026-04-24 03:01 19.40173 -99.13876 9981 ft 206 kts 245°
2026-04-24 03:02 19.39556 -99.15207 10640 ft 207 kts 248°
2026-04-24 03:02 19.38957 -99.16700 10847 ft 232 kts 251°
2026-04-24 03:02 19.38468 -99.18321 11515 ft 232 kts 262°
2026-04-24 03:02 19.38420 -99.20036 12060 ft 237 kts 284°
2026-04-24 03:03 19.39191 -99.21604 12303 ft 254 kts 319°
2026-04-24 03:03 19.40783 -99.22450 12725 ft 267 kts 352°
2026-04-24 03:03 19.42684 -99.22211 13172 ft 284 kts 20°
2026-04-24 03:03 19.44531 -99.21347 13664 ft 296 kts 21°
2026-04-24 03:04 19.46522 -99.20635 14044 ft 311 kts 11°
2026-04-24 03:04 19.48715 -99.20289 14441 ft 326 kts
2026-04-24 03:04 19.51035 -99.20236 14863 ft 341 kts 358°
2026-04-24 03:04 19.53474 -99.20339 15308 ft 355 kts 356°
2026-04-24 03:05 19.55956 -99.20501 15870 ft 364 kts 355°
2026-04-24 03:05 19.58524 -99.20674 16559 ft 370 kts 356°
2026-04-24 03:05 19.61116 -99.20835 17323 ft 373 kts 355°
2026-04-24 03:05 19.63713 -99.20984 17983 ft 379 kts 356°
2026-04-24 03:06 19.66385 -99.21127 18791 ft 379 kts 356°
2026-04-24 03:06 19.69005 -99.21262 19499 ft 382 kts 356°
2026-04-24 03:06 19.71692 -99.21400 20171 ft 385 kts 356°
2026-04-24 03:06 19.74373 -99.21536 20815 ft 389 kts 356°
2026-04-24 03:07 19.77085 -99.21674 21515 ft 390 kts 356°
2026-04-24 03:07 19.79810 -99.21814 22134 ft 394 kts 356°
2026-04-24 03:07 19.82550 -99.21954 22771 ft 397 kts 356°
2026-04-24 03:07 19.85305 -99.22095 23426 ft 399 kts 356°
2026-04-24 03:08 19.88131 -99.22240 23951 ft 405 kts 356°
2026-04-24 03:08 19.93765 -99.22524 25199 ft 410 kts 355°
2026-04-24 03:08 19.96654 -99.22667 25765 ft 413 kts 355°
2026-04-24 03:09 19.99543 -99.22811 26309 ft 417 kts 355°
2026-04-24 03:09 20.02446 -99.22956 26829 ft 421 kts 355°
2026-04-24 03:09 20.05372 -99.23103 27390 ft 424 kts 355°
2026-04-24 03:09 20.08329 -99.23253 27962 ft 426 kts 355°
2026-04-24 03:10 20.11331 -99.23405 28518 ft 428 kts 355°
2026-04-24 03:10 20.14323 -99.23580 28979 ft 431 kts 353°
2026-04-24 03:10 20.17264 -99.24101 29536 ft 430 kts 343°
2026-04-24 03:10 20.20105 -99.25140 29976 ft 433 kts 334°
2026-04-24 03:11 20.22764 -99.26699 30447 ft 434 kts 325°
2026-04-24 03:11 20.25133 -99.28641 30876 ft 437 kts 318°
2026-04-24 03:11 20.27300 -99.30904 31588 ft 433 kts 312°
2026-04-24 03:11 20.29172 -99.33366 32372 ft 428 kts 306°
2026-04-24 03:12 20.30767 -99.36031 33081 ft 424 kts 300°
2026-04-24 03:12 20.32060 -99.38860 33737 ft 423 kts 294°
2026-04-24 03:12 20.33022 -99.41767 34278 ft 424 kts 288°
2026-04-24 03:12 20.33687 -99.44829 34760 ft 426 kts 283°
2026-04-24 03:13 20.34161 -99.47955 35249 ft 426 kts 282°
2026-04-24 03:13 20.34672 -99.51064 35763 ft 424 kts 284°
2026-04-24 03:13 20.35354 -99.54094 36270 ft 422 kts 289°
2026-04-24 03:13 20.36263 -99.57106 36425 ft 425 kts 292°
2026-04-24 03:14 20.37360 -99.60017 36421 ft 423 kts 296°
2026-04-24 03:14 20.39894 -99.65620 36418 ft 418 kts 298°
2026-04-24 03:15 20.42633 -99.71129 36391 ft 419 kts 300°
2026-04-24 03:15 20.45410 -99.76606 36385 ft 418 kts 300°
2026-04-24 03:16 20.48169 -99.82049 36384 ft 417 kts 300°
2026-04-24 03:16 20.50921 -99.87497 36390 ft 418 kts 300°
2026-04-24 03:17 20.53671 -99.92959 36373 ft 418 kts 300°
2026-04-24 03:17 20.56417 -99.98422 36368 ft 418 kts 300°
2026-04-24 03:18 20.59156 -100.03880 36320 ft 418 kts 300°
2026-04-24 03:18 20.61900 -100.09354 36278 ft 417 kts 300°
2026-04-24 03:19 20.64637 -100.14819 36238 ft 417 kts 299°
2026-04-24 03:19 20.67364 -100.20268 36231 ft 418 kts 299°
2026-04-24 03:20 20.70116 -100.25774 36240 ft 418 kts 299°
2026-04-24 03:20 20.72855 -100.31258 36281 ft 417 kts 299°
2026-04-24 03:21 20.75578 -100.36716 36308 ft 417 kts 299°
2026-04-24 03:21 20.78312 -100.42202 36339 ft 418 kts 299°
2026-04-24 03:22 20.81021 -100.47643 36363 ft 418 kts 299°
2026-04-24 03:22 20.83759 -100.53148 36366 ft 418 kts 299°
2026-04-24 03:23 20.86493 -100.58652 36361 ft 418 kts 299°
2026-04-24 03:23 20.89220 -100.64146 36350 ft 417 kts 299°
2026-04-24 03:24 20.91930 -100.69610 36340 ft 419 kts 298°
2026-04-24 03:24 20.94670 -100.75139 36333 ft 417 kts 298°
2026-04-24 03:25 20.97368 -100.80590 36337 ft 418 kts 299°
2026-04-24 03:25 21.00102 -100.86121 36346 ft 419 kts 298°
2026-04-24 03:26 21.02826 -100.91636 36350 ft 420 kts 298°
2026-04-24 03:26 21.05547 -100.97150 36354 ft 419 kts 298°
2026-04-24 03:27 21.08256 -101.02647 36358 ft 418 kts 298°
2026-04-24 03:27 21.10981 -101.08179 36370 ft 418 kts 298°
2026-04-24 03:28 21.13682 -101.13672 36384 ft 418 kts 298°
2026-04-24 03:28 21.16384 -101.19170 36392 ft 417 kts 298°
2026-04-24 03:29 21.19095 -101.24693 36407 ft 418 kts 298°
2026-04-24 03:29 21.21797 -101.30205 36404 ft 416 kts 298°
2026-04-24 03:30 21.24488 -101.35697 36416 ft 418 kts 298°
2026-04-24 03:30 21.27194 -101.41226 36416 ft 418 kts 298°
2026-04-24 03:31 21.29886 -101.46732 36422 ft 416 kts 298°
2026-04-24 03:31 21.32578 -101.52245 36427 ft 417 kts 298°
2026-04-24 03:32 21.35258 -101.57736 36406 ft 415 kts 298°
2026-04-24 03:32 21.37933 -101.63228 36394 ft 417 kts 298°
2026-04-24 03:33 21.40630 -101.68765 36377 ft 417 kts 297°
2026-04-24 03:33 21.43289 -101.74232 36362 ft 416 kts 297°
2026-04-24 03:34 21.45973 -101.79758 36359 ft 417 kts 297°
2026-04-24 03:34 21.48647 -101.85268 36359 ft 417 kts 297°
2026-04-24 03:35 21.51316 -101.90775 36360 ft 416 kts 297°
2026-04-24 03:35 21.53995 -101.96304 36363 ft 416 kts 297°
2026-04-24 03:36 21.56657 -102.01804 36354 ft 416 kts 297°
2026-04-24 03:36 21.59324 -102.07321 36313 ft 414 kts 297°
2026-04-24 03:37 21.61980 -102.12825 36305 ft 417 kts 297°
2026-04-24 03:37 21.64646 -102.18353 36258 ft 414 kts 297°
2026-04-24 03:38 21.67294 -102.23850 36237 ft 414 kts 297°
2026-04-24 03:38 21.70001 -102.29287 36209 ft 414 kts 300°
2026-04-24 03:39 21.73601 -102.34133 36214 ft 416 kts 314°
2026-04-24 03:39 21.77956 -102.38190 36229 ft 417 kts 319°
2026-04-24 03:40 21.83245 -102.42744 36256 ft 418 kts 319°
2026-04-24 03:40 21.87020 -102.46008 36288 ft 416 kts 319°
2026-04-24 03:41 21.91520 -102.49946 36345 ft 416 kts 319°
2026-04-24 03:41 21.96013 -102.53912 36377 ft 416 kts 318°
2026-04-24 03:42 22.00493 -102.57884 36392 ft 415 kts 318°
2026-04-24 03:42 22.04919 -102.61819 36404 ft 415 kts 318°
2026-04-24 03:43 22.09415 -102.65820 36404 ft 415 kts 318°
2026-04-24 03:43 22.13849 -102.69774 36413 ft 414 kts 317°
2026-04-24 03:44 22.18290 -102.73739 36420 ft 414 kts 317°
2026-04-24 03:44 22.22741 -102.77715 36429 ft 414 kts 317°
2026-04-24 03:45 22.27189 -102.81692 36409 ft 414 kts 317°
2026-04-24 03:45 22.31616 -102.85654 36392 ft 413 kts 317°
2026-04-24 03:46 22.36047 -102.89619 36373 ft 415 kts 317°
2026-04-24 03:46 22.40488 -102.93597 36362 ft 413 kts 317°
2026-04-24 03:47 22.44909 -102.97559 36359 ft 414 kts 317°
2026-04-24 03:47 22.49337 -103.01532 36355 ft 413 kts 317°
2026-04-24 03:48 22.53757 -103.05499 36374 ft 413 kts 317°
2026-04-24 03:48 22.58189 -103.09483 36383 ft 414 kts 317°
2026-04-24 03:49 22.62638 -103.13486 36393 ft 414 kts 317°
2026-04-24 03:49 22.67050 -103.17457 36410 ft 413 kts 317°
2026-04-24 03:50 22.71465 -103.21435 36426 ft 412 kts 317°
2026-04-24 03:50 22.75884 -103.25421 36447 ft 413 kts 317°
2026-04-24 03:51 22.80284 -103.29393 36429 ft 413 kts 317°
2026-04-24 03:51 22.84712 -103.33394 36418 ft 414 kts 317°
2026-04-24 03:52 22.89159 -103.37415 36410 ft 413 kts 317°
2026-04-24 03:52 22.93585 -103.41420 36398 ft 414 kts 317°
2026-04-24 03:53 22.98005 -103.45424 36392 ft 413 kts 317°
2026-04-24 03:53 23.02396 -103.49404 36390 ft 413 kts 317°
2026-04-24 03:54 23.06825 -103.53423 36400 ft 413 kts 317°
2026-04-24 03:54 23.11217 -103.57411 36402 ft 413 kts 317°
2026-04-24 03:55 23.15632 -103.61424 36397 ft 412 kts 317°
2026-04-24 03:55 23.20022 -103.65420 36402 ft 413 kts 316°
2026-04-24 03:56 23.24423 -103.69428 36395 ft 412 kts 316°
2026-04-24 03:56 23.28813 -103.73428 36393 ft 413 kts 316°
2026-04-24 03:57 23.33232 -103.77461 36374 ft 412 kts 316°
2026-04-24 03:57 23.37650 -103.81494 36375 ft 413 kts 316°
2026-04-24 03:58 23.42055 -103.85519 36371 ft 411 kts 316°
2026-04-24 03:58 23.46442 -103.89532 36364 ft 412 kts 316°
2026-04-24 03:59 23.50839 -103.93557 36353 ft 413 kts 316°
2026-04-24 03:59 23.55220 -103.97571 36338 ft 412 kts 316°
2026-04-24 04:00 23.59620 -104.01606 36340 ft 412 kts 316°
2026-04-24 04:00 23.64019 -104.05643 36324 ft 412 kts 316°
2026-04-24 04:01 23.68398 -104.09666 36325 ft 412 kts 316°
2026-04-24 04:01 23.72817 -104.13728 36322 ft 411 kts 316°
2026-04-24 04:02 23.77201 -104.17764 36320 ft 413 kts 316°
2026-04-24 04:02 23.81588 -104.21806 36317 ft 412 kts 316°
2026-04-24 04:03 23.85981 -104.25857 36321 ft 412 kts 316°
2026-04-24 04:03 23.90370 -104.29908 36327 ft 411 kts 316°
2026-04-24 04:04 23.94739 -104.33944 36314 ft 411 kts 316°
2026-04-24 04:04 23.99096 -104.37972 36309 ft 410 kts 316°
2026-04-24 04:05 24.03464 -104.42014 36296 ft 411 kts 316°
2026-04-24 04:05 24.07857 -104.46082 36276 ft 410 kts 316°
2026-04-24 04:06 24.12184 -104.50166 36263 ft 411 kts 313°
2026-04-24 04:06 24.16017 -104.54736 36275 ft 406 kts 306°
2026-04-24 04:07 24.19512 -104.59602 36294 ft 405 kts 304°
2026-04-24 04:07 24.22907 -104.64481 36309 ft 405 kts 304°
2026-04-24 04:08 24.26336 -104.69406 36331 ft 404 kts 304°
2026-04-24 04:08 24.29736 -104.74274 36359 ft 404 kts 304°
2026-04-24 04:09 24.33152 -104.79160 36358 ft 405 kts 304°
2026-04-24 04:09 24.36600 -104.84092 36371 ft 403 kts 304°
2026-04-24 04:10 24.39999 -104.88954 36374 ft 403 kts 304°
2026-04-24 04:10 24.43431 -104.93874 36404 ft 402 kts 303°
2026-04-24 04:11 24.48531 -105.01193 36429 ft 403 kts 304°
2026-04-24 04:11 24.51956 -105.06110 36415 ft 401 kts 303°
2026-04-24 04:12 24.55327 -105.10955 36392 ft 402 kts 304°
2026-04-24 04:12 24.58740 -105.15868 36379 ft 402 kts 303°
2026-04-24 04:13 24.62145 -105.20772 36365 ft 402 kts 304°
2026-04-24 04:13 24.65520 -105.25639 36358 ft 400 kts 303°
2026-04-24 04:14 24.68890 -105.30510 36367 ft 401 kts 304°
2026-04-24 04:14 24.72254 -105.35377 36370 ft 400 kts 304°
2026-04-24 04:15 24.75623 -105.40257 36385 ft 400 kts 303°
2026-04-24 04:15 24.78987 -105.45134 36393 ft 401 kts 303°
2026-04-24 04:16 24.82356 -105.50024 36392 ft 400 kts 303°
2026-04-24 04:16 24.85704 -105.54887 36391 ft 399 kts 303°
2026-04-24 04:17 24.89051 -105.59753 36392 ft 399 kts 303°
2026-04-24 04:17 24.92411 -105.64642 36405 ft 399 kts 303°
2026-04-24 04:18 24.95761 -105.69523 36411 ft 399 kts 303°
2026-04-24 04:18 24.99088 -105.74374 36434 ft 398 kts 303°
2026-04-24 04:19 25.02422 -105.79240 36439 ft 397 kts 303°
2026-04-24 04:19 25.05755 -105.84112 36431 ft 397 kts 303°
2026-04-24 04:20 25.09085 -105.88982 36430 ft 396 kts 303°
2026-04-24 04:20 25.12397 -105.93831 36425 ft 397 kts 303°
2026-04-24 04:21 25.15720 -105.98696 36428 ft 396 kts 303°
2026-04-24 04:21 25.19038 -106.03559 36422 ft 396 kts 302°
2026-04-24 04:22 25.22346 -106.08415 36399 ft 396 kts 302°
2026-04-24 04:22 25.25652 -106.13273 36396 ft 397 kts 303°
2026-04-24 04:23 25.28996 -106.18191 36400 ft 399 kts 303°
2026-04-24 04:23 25.32301 -106.23054 36390 ft 397 kts 302°
2026-04-24 04:24 25.35624 -106.27950 36382 ft 399 kts 303°
2026-04-24 04:24 25.38938 -106.32838 36379 ft 397 kts 302°
2026-04-24 04:25 25.42243 -106.37719 36379 ft 397 kts 302°
2026-04-24 04:25 25.45534 -106.42644 36372 ft 398 kts 302°
2026-04-24 04:26 25.48786 -106.47582 36365 ft 397 kts 302°
2026-04-24 04:26 25.52031 -106.52518 36366 ft 398 kts 302°
2026-04-24 04:27 25.55288 -106.57467 36364 ft 398 kts 302°
2026-04-24 04:27 25.58544 -106.62414 36358 ft 398 kts 302°
2026-04-24 04:28 25.61812 -106.67381 36356 ft 398 kts 301°
2026-04-24 04:28 25.65076 -106.72346 36336 ft 398 kts 301°
2026-04-24 04:29 25.68337 -106.77314 36335 ft 398 kts 302°
2026-04-24 04:29 25.71583 -106.82262 36318 ft 397 kts 301°
2026-04-24 04:30 25.74822 -106.87209 36310 ft 398 kts 302°
2026-04-24 04:30 25.78083 -106.92191 36307 ft 399 kts 301°
2026-04-24 04:31 25.81337 -106.97170 36310 ft 399 kts 301°
2026-04-24 04:31 25.84593 -107.02156 36313 ft 398 kts 302°
2026-04-24 04:32 25.87851 -107.07150 36283 ft 399 kts 302°
2026-04-24 04:32 25.91104 -107.12121 36301 ft 398 kts 302°
2026-04-24 04:33 25.94367 -107.17107 36277 ft 398 kts 302°
2026-04-24 04:33 25.97610 -107.22066 36261 ft 398 kts 301°
2026-04-24 04:34 26.00864 -107.27051 36227 ft 398 kts 301°
2026-04-24 04:34 26.04115 -107.32034 36241 ft 397 kts 301°
2026-04-24 04:35 26.07354 -107.37007 36236 ft 396 kts 301°
2026-04-24 04:35 26.10590 -107.41982 36229 ft 398 kts 301°
2026-04-24 04:36 26.13829 -107.46966 36241 ft 397 kts 301°
2026-04-24 04:36 26.17063 -107.51947 36227 ft 396 kts 301°
2026-04-24 04:37 26.20271 -107.56895 36206 ft 396 kts 301°
2026-04-24 04:37 26.23495 -107.61871 36192 ft 396 kts 301°
2026-04-24 04:38 26.26719 -107.66856 36162 ft 396 kts 300°
2026-04-24 04:38 26.29923 -107.71814 36140 ft 396 kts 300°
2026-04-24 04:39 26.33139 -107.76791 36136 ft 395 kts 300°
2026-04-24 04:39 26.36346 -107.81764 36151 ft 397 kts 300°
2026-04-24 04:40 26.39574 -107.86775 36155 ft 395 kts 300°
2026-04-24 04:40 26.42762 -107.91728 36162 ft 396 kts 300°
2026-04-24 04:41 26.45962 -107.96707 36128 ft 395 kts 300°
2026-04-24 04:41 26.49168 -108.01701 36118 ft 395 kts 300°
2026-04-24 04:42 26.52374 -108.06699 36111 ft 394 kts 300°
2026-04-24 04:42 26.55564 -108.11677 36099 ft 396 kts 300°
2026-04-24 04:43 26.58822 -108.16586 36081 ft 398 kts 304°
2026-04-24 04:43 26.62598 -108.21139 36063 ft 401 kts 308°
2026-04-24 04:44 26.66586 -108.25532 36041 ft 401 kts 309°
2026-04-24 04:44 26.70578 -108.29903 36023 ft 402 kts 309°
2026-04-24 04:45 26.74516 -108.34250 36004 ft 401 kts 308°
2026-04-24 04:45 26.78479 -108.38655 36004 ft 398 kts 308°
2026-04-24 04:46 26.82393 -108.43025 35994 ft 400 kts 308°
2026-04-24 04:46 26.86337 -108.47437 35996 ft 400 kts 308°
2026-04-24 04:47 26.90256 -108.51826 35989 ft 399 kts 308°
2026-04-24 04:47 26.94195 -108.56240 35996 ft 399 kts 308°
2026-04-24 04:48 26.98097 -108.60618 36002 ft 399 kts 308°
2026-04-24 04:48 27.02004 -108.65005 35998 ft 399 kts 307°
2026-04-24 04:49 27.05909 -108.69398 36015 ft 396 kts 307°
2026-04-24 04:49 27.09803 -108.73783 36010 ft 398 kts 307°
2026-04-24 04:50 27.13701 -108.78175 36030 ft 397 kts 307°
2026-04-24 04:50 27.17614 -108.82589 36026 ft 397 kts 307°
2026-04-24 04:51 27.21491 -108.86968 36021 ft 397 kts 307°
2026-04-24 04:51 27.25392 -108.91379 36001 ft 396 kts 307°
2026-04-24 04:52 27.29257 -108.95750 35995 ft 395 kts 307°
2026-04-24 04:52 27.33136 -109.00146 36011 ft 397 kts 307°
2026-04-24 04:53 27.37033 -109.04563 36020 ft 396 kts 307°
2026-04-24 04:53 27.40889 -109.08941 36016 ft 396 kts 307°
2026-04-24 04:54 27.44780 -109.13364 36024 ft 396 kts 307°
2026-04-24 04:54 27.48643 -109.17754 36018 ft 393 kts 307°
2026-04-24 04:55 27.52478 -109.22120 35995 ft 395 kts 307°
2026-04-24 04:55 27.56335 -109.26521 35970 ft 393 kts 307°
2026-04-24 04:56 27.60160 -109.30891 35983 ft 393 kts 307°
2026-04-24 04:56 27.63951 -109.35267 35994 ft 392 kts 306°
2026-04-24 04:57 27.67761 -109.39687 35999 ft 392 kts 306°
2026-04-24 04:57 27.71539 -109.44070 36006 ft 392 kts 306°
2026-04-24 04:58 27.75353 -109.48501 36019 ft 391 kts 306°
2026-04-24 04:58 27.79119 -109.52873 36024 ft 390 kts 306°
2026-04-24 04:59 27.82909 -109.57281 36004 ft 390 kts 306°
2026-04-24 04:59 27.86678 -109.61667 35990 ft 389 kts 306°
2026-04-24 05:00 27.90446 -109.66054 35606 ft 387 kts 305°
2026-04-24 05:00 27.92301 -109.68213 35074 ft 383 kts 306°
2026-04-24 05:00 27.94155 -109.70372 34431 ft 382 kts 306°
2026-04-24 05:01 27.96008 -109.72536 33744 ft 382 kts 306°
2026-04-24 05:01 27.97840 -109.74678 33063 ft 381 kts 305°
2026-04-24 05:01 27.99686 -109.76840 32444 ft 382 kts 306°
2026-04-24 05:01 28.01540 -109.79011 31960 ft 383 kts 306°
2026-04-24 05:02 28.03383 -109.81173 31431 ft 388 kts 306°
2026-04-24 05:02 28.05259 -109.83373 30882 ft 386 kts 307°
2026-04-24 05:02 28.07126 -109.85555 30328 ft 383 kts 307°
2026-04-24 05:02 28.08972 -109.87711 29780 ft 380 kts 307°
2026-04-24 05:03 28.10793 -109.89841 29242 ft 377 kts 307°
2026-04-24 05:03 28.12604 -109.91963 28687 ft 374 kts 307°
2026-04-24 05:03 28.14419 -109.94090 28136 ft 371 kts 307°
2026-04-24 05:03 28.16200 -109.96146 27610 ft 369 kts 309°
2026-04-24 05:04 28.18113 -109.98112 27065 ft 369 kts 312°
2026-04-24 05:04 28.20097 -109.99952 26528 ft 368 kts 314°
2026-04-24 05:04 28.22090 -110.01723 25993 ft 365 kts 315°
2026-04-24 05:04 28.24090 -110.03482 25463 ft 363 kts 315°
2026-04-24 05:05 28.26064 -110.05223 24946 ft 359 kts 315°
2026-04-24 05:05 28.28020 -110.06958 24418 ft 356 kts 315°
2026-04-24 05:05 28.29969 -110.08700 23899 ft 353 kts 314°
2026-04-24 05:05 28.31889 -110.10422 23383 ft 350 kts 314°
2026-04-24 05:06 28.33785 -110.12130 22874 ft 347 kts 314°
2026-04-24 05:06 28.35655 -110.13818 22382 ft 345 kts 314°
2026-04-24 05:06 28.37524 -110.15510 21880 ft 343 kts 314°
2026-04-24 05:06 28.39387 -110.17197 21374 ft 341 kts 315°
2026-04-24 05:07 28.41220 -110.18859 20874 ft 339 kts 315°
2026-04-24 05:07 28.43064 -110.20533 20372 ft 337 kts 315°
2026-04-24 05:07 28.44867 -110.22169 19870 ft 335 kts 315°
2026-04-24 05:07 28.46694 -110.23829 19274 ft 336 kts 315°
2026-04-24 05:08 28.48529 -110.25497 18683 ft 337 kts 315°
2026-04-24 05:08 28.50348 -110.27153 18160 ft 335 kts 316°
2026-04-24 05:08 28.52163 -110.28803 17655 ft 333 kts 316°
2026-04-24 05:08 28.53957 -110.30435 17159 ft 331 kts 316°
2026-04-24 05:09 28.55762 -110.32077 16668 ft 329 kts 316°
2026-04-24 05:09 28.57524 -110.33680 16179 ft 327 kts 316°
2026-04-24 05:09 28.59308 -110.35304 15681 ft 326 kts 317°
2026-04-24 05:09 28.61066 -110.36905 15219 ft 323 kts 317°
2026-04-24 05:10 28.62814 -110.38497 14744 ft 322 kts 317°
2026-04-24 05:10 28.64551 -110.40082 14269 ft 323 kts 317°
2026-04-24 05:10 28.66331 -110.41708 13785 ft 329 kts 318°
2026-04-24 05:10 28.68108 -110.43330 13285 ft 329 kts 318°
2026-04-24 05:11 28.69904 -110.44969 12775 ft 332 kts 319°
2026-04-24 05:11 28.71720 -110.46626 12269 ft 334 kts 319°
2026-04-24 05:11 28.73528 -110.48277 11765 ft 337 kts 319°
2026-04-24 05:11 28.75365 -110.49955 11250 ft 335 kts 319°
2026-04-24 05:12 28.77160 -110.51594 10751 ft 331 kts 319°
2026-04-24 05:12 28.78916 -110.53199 10376 ft 316 kts 320°
2026-04-24 05:12 28.80587 -110.54724 10249 ft 292 kts 319°
2026-04-24 05:12 28.82126 -110.56131 10163 ft 275 kts 319°
2026-04-24 05:13 28.85060 -110.58826 9446 ft 268 kts 319°
2026-04-24 05:13 28.86468 -110.60118 9144 ft 254 kts 319°
2026-04-24 05:13 28.87817 -110.61354 8805 ft 242 kts 319°
2026-04-24 05:14 28.89093 -110.62524 8502 ft 231 kts 319°
2026-04-24 05:14 28.90316 -110.63647 8218 ft 221 kts 319°
2026-04-24 05:14 28.91496 -110.64731 7941 ft 212 kts 319°
2026-04-24 05:14 28.92628 -110.65771 7684 ft 202 kts 319°
2026-04-24 05:15 28.93691 -110.66749 7424 ft 194 kts 319°
2026-04-24 05:15 28.94725 -110.67699 7172 ft 185 kts 318°
2026-04-24 05:15 28.95711 -110.68607 6938 ft 179 kts 319°
2026-04-24 05:15 28.96681 -110.69500 6715 ft 180 kts 319°
2026-04-24 05:16 28.97648 -110.70390 6484 ft 180 kts 319°
2026-04-24 05:16 28.98622 -110.71286 6247 ft 179 kts 319°
2026-04-24 05:16 28.99597 -110.72181 6022 ft 179 kts 319°
2026-04-24 05:16 29.00574 -110.73079 5787 ft 178 kts 319°
2026-04-24 05:17 29.01528 -110.73957 5560 ft 178 kts 319°
2026-04-24 05:17 29.02492 -110.74844 5323 ft 176 kts 319°
2026-04-24 05:17 29.03449 -110.75725 5097 ft 175 kts 319°
2026-04-24 05:17 29.04389 -110.76592 4883 ft 174 kts 319°
2026-04-24 05:18 29.05331 -110.77459 4656 ft 173 kts 319°
2026-04-24 05:18 29.06259 -110.78314 4436 ft 171 kts 319°
2026-04-24 05:18 29.07186 -110.79168 4303 ft 169 kts 319°
2026-04-24 05:18 29.08085 -110.79995 4253 ft 161 kts 319°
2026-04-24 05:19 29.08941 -110.80784 4186 ft 157 kts 319°
2026-04-24 05:19 29.09799 -110.81576 4136 ft 158 kts 319°
2026-04-24 05:19 29.10656 -110.82368 4081 ft 158 kts 319°
2026-04-24 05:19 29.11514 -110.83141 3993 ft 158 kts 322°
2026-04-24 05:20 29.12461 -110.83825 3805 ft 159 kts 328°
2026-04-24 05:20 29.13410 -110.84443 3647 ft 156 kts 327°
2026-04-24 05:20 29.14346 -110.85075 3544 ft 157 kts 327°
2026-04-24 05:20 29.15291 -110.85727 3426 ft 157 kts 327°
2026-04-24 05:21 29.16223 -110.86368 3290 ft 157 kts 327°
2026-04-24 05:21 29.17131 -110.87039 3141 ft 154 kts 317°
2026-04-24 05:21 29.17700 -110.88036 3019 ft 151 kts 281°
2026-04-24 05:21 29.17707 -110.89235 3005 ft 150 kts 259°
2026-04-24 05:22 29.17324 -110.90334 2998 ft 149 kts 236°
2026-04-24 05:22 29.16742 -110.91314 2996 ft 149 kts 237°
2026-04-24 05:22 29.16190 -110.92335 2999 ft 150 kts 239°
2026-04-24 05:22 29.15652 -110.93362 2917 ft 150 kts 239°
2026-04-24 05:23 29.15127 -110.94378 2805 ft 148 kts 240°
2026-04-24 05:23 29.14620 -110.95409 2654 ft 151 kts 238°
2026-04-24 05:23 29.14054 -110.96416 2380 ft 149 kts 237°
2026-04-24 05:23 29.13503 -110.97411 2137 ft 145 kts 238°
2026-04-24 05:24 29.12979 -110.98393 1930 ft 143 kts 238°
2026-04-24 05:24 29.12468 -110.99356 1723 ft 143 kts 238°
2026-04-24 05:24 29.11950 -111.00328 1509 ft 141 kts 238°
2026-04-24 05:24 29.11435 -111.01294 1308 ft 143 kts 238°
2026-04-24 05:25 29.10916 -111.02271 1086 ft 143 kts 238°
2026-04-24 05:25 29.10403 -111.03235 872 ft 143 kts 238°
2026-04-24 05:25 29.09878 -111.04211 703 ft 142 kts 238°
2026-04-24 05:25 29.09380 -111.05151 629 ft 117 kts 237°
2026-04-24 05:26 29.09127 -111.05605 626 ft 20 kts 206°
2026-04-24 05:26 29.09110 -111.05608 626 ft 3 kts 177°
2026-04-24 05:26 29.09079 -111.05573 627 ft 11 kts 105°
2026-04-24 05:26 29.09076 -111.05485 627 ft 10 kts 90°
2026-04-24 05:27 29.09077 -111.05400 627 ft 10 kts 88°
2026-04-24 05:27 29.09098 -111.05331 628 ft 8 kts 59°
2026-04-24 05:27 29.09125 -111.05279 629 ft 7 kts 59°
2026-04-24 05:27 29.09140 -111.05228 629 ft 6 kts 110°
2026-04-24 05:28 29.09107 -111.05202 630 ft 4 kts 148°
2026-04-24 05:28 29.09096 -111.05195 630 ft 0 kts 150°